Flag for U.S.A. Weather past 2 weeks in Springfield, Missouri, U.S.A.

Now
41 °F

Sunny.


Feels Like: 31 °F
Forecast: 35 / 62 °F
Wind: 24 mph from Southeast

Location: Springfield Regional Airport

Current Time: Mar 29, 2015 at 9:33:20 AM

Latest Report: Mar 29, 2015 at 8:52 AM


Visibility: 10 mi

Pressure: 30.02 "Hg

Humidity: 62%

Dew point: 29 °F

Location of SpringfieldLocation

Historic Weather in Springfield — Graph

°F

Springfield temperature yesterday

Maximum temperature yesterday: 47 °F (at 4:52 PM)
Minimum temperature yesterday: 36 °F (at 11:52 PM)
Average temperature yesterday: 41 °F

Past Weeks' High & Low Weather Summary

 TemperatureHumidityPressure
High76 °F (Mar 24, 3:52 PM)97% (Mar 19, 10:52 PM)30.35 "Hg (Mar 19, 10:52 PM)
Low31 °F (Mar 15, 6:52 AM)26% (Mar 15, 2:52 PM)29.66 "Hg (Mar 24, 5:52 PM)
Average50 °F70%30.09 "Hg
* Reported Mar 14 7:52 AM — Mar 29 7:52 AM, Springfield, Weather by CustomWeather, © 2015

Note: Actual official high and low records may vary slightly from our data, if they occured in-between our weather recording intervals... More about our weather records

Advertising

Springfield weather history for previous 24 hours

 ConditionsComfort  
Time TempWeatherWind HumidityBarometerVisibility
7:52 AM
Sun, Mar 29
37 °FClear.25 mph70%30.03 "Hg10 mi
6:52 AM36 °FClear.25 mph73%30.03 "Hg10 mi
5:52 AM35 °FClear.24 mph75%30.03 "Hg10 mi
4:52 AM35 °FClear.26 mph78%30.05 "Hg10 mi
3:52 AM35 °FClear.21 mph78%30.08 "Hg10 mi
2:52 AM35 °FClear.24 mph78%30.10 "Hg10 mi
1:52 AM35 °FClear.22 mph82%30.13 "Hg10 mi
12:52 AM35 °FClear.22 mph82%30.15 "Hg10 mi
11:52 PM
Sat, Mar 28
36 °FClear.22 mph82%30.18 "Hg10 mi
10:52 PM37 °FClear.17 mph79%30.18 "Hg10 mi
9:52 PM37 °FClear.17 mph79%30.18 "Hg10 mi
8:52 PM39 °FClear.16 mph73%30.18 "Hg10 mi
7:52 PM40 °FSunny.13 mph70%30.17 "Hg10 mi
6:52 PM43 °FSunny.15 mph65%30.17 "Hg10 mi
5:52 PM46 °FPassing clouds.16 mph58%30.16 "Hg10 mi
4:52 PM47 °FPassing clouds.14 mph56%30.16 "Hg10 mi
3:52 PM45 °FPassing clouds.14 mph58%30.16 "Hg10 mi
2:52 PM44 °FScattered clouds.16 mph58%30.17 "Hg10 mi
1:52 PM42 °FOvercast.16 mph60%30.18 "Hg10 mi
12:52 PM41 °FOvercast.20 mph58%30.19 "Hg10 mi
11:52 AM41 °FOvercast.15 mph58%30.20 "Hg10 mi
10:52 AM40 °FLight rain. Overcast.17 mph55%30.20 "Hg10 mi
9:52 AM39 °FOvercast.13 mph57%30.19 "Hg10 mi
Weather by CustomWeather, © 2015

See weather overviewHow to use our weather pages